This is the latest recevied weather packets stored in our database for station/object KR0L-13. If no packets are shown the sender has not sent any weather packets the latest 10 day(s).
| Time | Temp. | Humidity | Pressure | Rain* | Wind** | Luminosity | Snow |
|---|---|---|---|---|---|---|---|
| 1788393922 | 36.11° C | 33% | 1011.4 hPa | 0 mm | - | - | - |
| 1788393322 | 36.11° C | 33% | 1011.5 hPa | 0 mm | - | - | - |
| 1788392722 | 36.67° C | 31% | 1011.5 hPa | 0 mm | - | - | - |
| 1788392121 | 37.22° C | 31% | 1011.6 hPa | 0 mm | - | - | - |
| 1788391522 | 37.22° C | 31% | 1011.5 hPa | 0 mm | - | - | - |
| 1788390921 | 37.78° C | 30% | 1011.5 hPa | 0 mm | - | - | - |
| 1788390322 | 37.78° C | 30% | 1011.6 hPa | 0 mm | - | - | - |
| 1788389721 | 37.78° C | 30% | 1011.7 hPa | 0 mm | - | - | - |
| 1788389122 | 38.33° C | 30% | 1011.8 hPa | 0 mm | - | - | - |
| 1788388521 | 38.33° C | 29% | 1011.8 hPa | 0 mm | - | - | - |
| 1788387921 | 38.33° C | 30% | 1012 hPa | 0 mm | - | - | - |
| 1788387321 | 38.33° C | 29% | 1012 hPa | 0 mm | - | - | - |
| 1788386721 | 38.33° C | 30% | 1012.1 hPa | 0 mm | - | - | - |
| 1788386121 | 38.33° C | 30% | 1011.9 hPa | 0 mm | - | - | - |
| 1788385521 | 39.44° C | 29% | 1012 hPa | 0 mm | - | - | - |
| 1788384921 | 39.44° C | 29% | 1012.1 hPa | 0 mm | - | - | - |
| 1788384321 | 38.89° C | 29% | 1012 hPa | 0 mm | - | - | - |
| 1788383721 | 38.89° C | 30% | 1012.2 hPa | 0 mm | - | - | - |
| 1788383121 | 38.89° C | 29% | 1012.3 hPa | 0 mm | - | - | - |
| 1788382521 | 38.89° C | 29% | 1012.5 hPa | 0 mm | - | - | - |
| 1788381921 | 38.89° C | 29% | 1012.6 hPa | 0 mm | - | - | - |
| 1788381321 | 38.89° C | 29% | 1012.8 hPa | 0 mm | - | - | - |
| 1788380721 | 38.89° C | 30% | 1013 hPa | 0 mm | - | - | - |
| 1788380121 | 38.89° C | 29% | 1013 hPa | 0 mm | - | - | - |
| 1788379521 | 38.33° C | 30% | 1013.1 hPa | 0 mm | - | - | - |
* Rain latest hour (hover to see other rain measurements)
** Current wind speed in m/s (hover to see current wind gust speed)